EN

Hourly Weather Bychki

Today, 16 April, Friday

Time Temperature Precipitation Wind Pressure Humidity
00:00 +9°C° 0 mm 2 mps 740 mmHg 78%
01:00 +9°C° 0 mm 3 mps 740 mmHg 83%
02:00 +8°C° 0 mm 3 mps 740 mmHg 88%
03:00 +7°C° 0 mm 3 mps 740 mmHg 90%
04:00 +7°C° 0 mm 3 mps 740 mmHg 92%
05:00 +5°C° 0 mm 3 mps 741 mmHg 95%
06:00 +6°C° 0 mm 4 mps 741 mmHg 87%
07:00 +8°C° 0 mm 4 mps 741 mmHg 80%
08:00 +10°C° 0 mm 4 mps 741 mmHg 73%
09:00 +10°C° 0.1 mm 5 mps 741 mmHg 67%
10:00 +10°C° 0.1 mm 5 mps 742 mmHg 62%
11:00 +11°C° 0.1 mm 6 mps 742 mmHg 56%
12:00 +12°C° 0.1 mm 5 mps 742 mmHg 58%
13:00 +12°C° 0.1 mm 5 mps 742 mmHg 60%
14:00 +12°C° 0.1 mm 5 mps 742 mmHg 62%
15:00 +11°C° 0 mm 4 mps 742 mmHg 64%
16:00 +11°C° 0 mm 4 mps 742 mmHg 66%
17:00 +11°C° 0 mm 4 mps 742 mmHg 67%
18:00 +10°C° 0 mm 3 mps 742 mmHg 72%
19:00 +9°C° 0 mm 3 mps 742 mmHg 76%
20:00 +8°C° 0 mm 2 mps 742 mmHg 81%
21:00 +7°C° 0 mm 2 mps 743 mmHg 82%
22:00 +7°C° 0 mm 2 mps 743 mmHg 83%
23:00 +7°C° 0 mm 2 mps 743 mmHg 84%

Tomorrow, 17 April, Saturday

Time Temperature Precipitation Wind Pressure Humidity
00:00 +6°C° 0 mm 2 mps 743 mmHg 85%
01:00 +6°C° 0 mm 2 mps 743 mmHg 87%
02:00 +5°C° 0 mm 2 mps 743 mmHg 88%
03:00 +5°C° 0 mm 2 mps 743 mmHg 89%
04:00 +5°C° 0 mm 2 mps 743 mmHg 89%
05:00 +5°C° 0 mm 2 mps 743 mmHg 90%
06:00 +7°C° 0.1 mm 1 mps 743 mmHg 86%
07:00 +8°C° 0.1 mm 1 mps 743 mmHg 83%
08:00 +9°C° 0.1 mm 1 mps 743 mmHg 79%
09:00 +9°C° 1 mm 1 mps 743 mmHg 79%
10:00 +9°C° 1 mm 1 mps 744 mmHg 78%
11:00 +9°C° 1 mm 1 mps 744 mmHg 78%
12:00 +9°C° 0.2 mm 1 mps 743 mmHg 76%
13:00 +9°C° 0.2 mm 2 mps 743 mmHg 73%
14:00 +9°C° 0.2 mm 2 mps 743 mmHg 71%
15:00 +9°C° 0.2 mm 2 mps 743 mmHg 74%
16:00 +9°C° 0.2 mm 2 mps 743 mmHg 76%
17:00 +9°C° 0.2 mm 2 mps 743 mmHg 78%
18:00 +8°C° 0.7 mm 2 mps 743 mmHg 82%
19:00 +7°C° 0.7 mm 2 mps 743 mmHg 86%
20:00 +7°C° 0.7 mm 2 mps 743 mmHg 90%
21:00 +7°C° 1.5 mm 2 mps 743 mmHg 91%
22:00 +7°C° 1.5 mm 3 mps 743 mmHg 91%
23:00 +5°C° 1.5 mm 3 mps 743 mmHg 92%

Day after tomorrow, 18 April, Sunday

Time Temperature Precipitation Wind Pressure Humidity
00:00 +5°C° 1.3 mm 3 mps 743 mmHg 92%
01:00 +5°C° 1.3 mm 3 mps 743 mmHg 92%
02:00 +5°C° 1.3 mm 3 mps 743 mmHg 92%
03:00 +5°C° 0.6 mm 2 mps 743 mmHg 91%
04:00 +5°C° 0.6 mm 2 mps 743 mmHg 91%
05:00 +5°C° 0.6 mm 2 mps 744 mmHg 91%
06:00 +6°C° 0.1 mm 2 mps 744 mmHg 85%
07:00 +5°C° 0.1 mm 3 mps 744 mmHg 80%
08:00 +7°C° 0.1 mm 3 mps 744 mmHg 74%
09:00 +6°C° 0 mm 4 mps 744 mmHg 70%
10:00 +7°C° 0 mm 4 mps 744 mmHg 67%
11:00 +7°C° 0 mm 4 mps 744 mmHg 64%
12:00 +7°C° 0 mm 4 mps 745 mmHg 67%
13:00 +8°C° 0 mm 3 mps 745 mmHg 70%
14:00 +8°C° 0 mm 3 mps 745 mmHg 74%
15:00 +8°C° 0 mm 3 mps 745 mmHg 76%
16:00 +8°C° 0 mm 3 mps 744 mmHg 79%
17:00 +7°C° 0 mm 2 mps 744 mmHg 81%
18:00 +7°C° 0.5 mm 2 mps 744 mmHg 84%
19:00 +7°C° 0.5 mm 2 mps 744 mmHg 86%
20:00 +7°C° 0.5 mm 2 mps 744 mmHg 89%
21:00 +7°C° 0.3 mm 2 mps 744 mmHg 88%
22:00 +7°C° 0.3 mm 3 mps 744 mmHg 88%
23:00 +6°C° 0.3 mm 4 mps 744 mmHg 87%

19 April, Monday

Time Temperature Precipitation Wind Pressure Humidity
00:00 +7°C° 0.1 mm 3 mps 744 mmHg 88%
01:00 +5°C° 0.1 mm 3 mps 744 mmHg 89%
02:00 +5°C° 0.1 mm 3 mps 744 mmHg 90%
03:00 +5°C° 0.1 mm 3 mps 744 mmHg 91%
04:00 +6°C° 0.1 mm 2 mps 744 mmHg 91%
05:00 +6°C° 0.1 mm 2 mps 744 mmHg 92%
06:00 +7°C° 0 mm 3 mps 744 mmHg 88%
07:00 +8°C° 0 mm 3 mps 744 mmHg 84%
08:00 +8°C° 0 mm 3 mps 744 mmHg 79%
09:00 +8°C° 0.1 mm 4 mps 744 mmHg 74%
10:00 +10°C° 0.1 mm 4 mps 743 mmHg 68%
11:00 +10°C° 0.1 mm 5 mps 743 mmHg 63%
12:00 +12°C° 0.2 mm 5 mps 743 mmHg 61%
13:00 +11°C° 0.2 mm 6 mps 743 mmHg 58%
14:00 +11°C° 0.2 mm 6 mps 742 mmHg 56%
15:00 +12°C° 0.1 mm 5 mps 742 mmHg 59%
16:00 +10°C° 0.1 mm 5 mps 742 mmHg 62%
17:00 +11°C° 0.1 mm 4 mps 741 mmHg 65%
18:00 +9°C° 0.1 mm 5 mps 741 mmHg 71%
19:00 +8°C° 0.1 mm 5 mps 740 mmHg 76%
20:00 +8°C° 0.1 mm 6 mps 740 mmHg 82%
21:00 +8°C° 0.3 mm 6 mps 739 mmHg 85%
22:00 +8°C° 0.3 mm 6 mps 738 mmHg 88%
23:00 +8°C° 0.3 mm 7 mps 738 mmHg 91%

20 April, Tuesday

Time Temperature Precipitation Wind Pressure Humidity
00:00 +6°C° 0.5 mm 7 mps 737 mmHg 91%
01:00 +6°C° 0.5 mm 8 mps 736 mmHg 92%
02:00 +6°C° 0.5 mm 8 mps 735 mmHg 93%
03:00 +6°C° 0.8 mm 8 mps 734 mmHg 93%
04:00 +6°C° 0.8 mm 8 mps 733 mmHg 93%
05:00 +6°C° 0.8 mm 9 mps 732 mmHg 93%
06:00 +6°C° 2.9 mm 10 mps 731 mmHg 93%
07:00 +6°C° 2.9 mm 11 mps 729 mmHg 93%
08:00 +5°C° 2.9 mm 12 mps 728 mmHg 93%
09:00 +7°C° 2.6 mm 12 mps 727 mmHg 92%
10:00 +7°C° 2.6 mm 12 mps 726 mmHg 91%
11:00 +8°C° 2.6 mm 12 mps 725 mmHg 91%
12:00 +8°C° 1.7 mm 11 mps 725 mmHg 89%
13:00 +10°C° 1.7 mm 9 mps 725 mmHg 87%
14:00 +10°C° 1.7 mm 7 mps 725 mmHg 85%
15:00 +10°C° 0.3 mm 8 mps 725 mmHg 84%
16:00 +9°C° 0.3 mm 8 mps 725 mmHg 83%
17:00 +8°C° 0.3 mm 9 mps 725 mmHg 82%
18:00 +7°C° 0.3 mm 8 mps 725 mmHg 84%
19:00 +8°C° 0.3 mm 7 mps 725 mmHg 87%
20:00 +7°C° 0.3 mm 6 mps 725 mmHg 90%
21:00 +6°C° 0.2 mm 7 mps 725 mmHg 91%
22:00 +6°C° 0.2 mm 7 mps 725 mmHg 91%
23:00 +5°C° 0.2 mm 7 mps 726 mmHg 92%

21 April, Wednesday

Time Temperature Precipitation Wind Pressure Humidity
00:00 +5°C° 0.2 mm 7 mps 727 mmHg 92%
01:00 +4°C° 0.2 mm 8 mps 728 mmHg 91%
02:00 +2°C° 0.2 mm 9 mps 730 mmHg 91%
03:00 +3°C° 0.1 mm 9 mps 731 mmHg 89%
04:00 +3°C° 0.1 mm 9 mps 731 mmHg 87%
05:00 +3°C° 0.1 mm 9 mps 732 mmHg 84%
06:00 +5°C° 0.1 mm 9 mps 733 mmHg 84%
07:00 +5°C° 0.1 mm 9 mps 733 mmHg 84%
08:00 +5°C° 0.1 mm 9 mps 734 mmHg 84%
09:00 +5°C° 0 mm 9 mps 734 mmHg 83%
10:00 +5°C° 0 mm 9 mps 735 mmHg 82%
11:00 +5°C° 0 mm 9 mps 735 mmHg 82%
12:00 +5°C° 0.1 mm 9 mps 736 mmHg 81%
13:00 +6°C° 0.1 mm 9 mps 736 mmHg 80%
14:00 +6°C° 0.1 mm 9 mps 736 mmHg 80%
15:00 +7°C° 0.2 mm 9 mps 737 mmHg 78%
16:00 +7°C° 0.2 mm 8 mps 737 mmHg 76%
17:00 +8°C° 0.2 mm 7 mps 738 mmHg 74%
18:00 +8°C° 0 mm 7 mps 738 mmHg 77%
19:00 +7°C° 0 mm 6 mps 738 mmHg 80%
20:00 +6°C° 0 mm 5 mps 739 mmHg 83%
21:00 +6°C° 0 mm 5 mps 739 mmHg 84%
22:00 +6°C° 0 mm 5 mps 740 mmHg 85%
23:00 +6°C° 0 mm 5 mps 740 mmHg 86%
Show more

We Need Your Consent

Meteoprog and our Service Providers may store and access personal data such as cookies, device identifiers or other similar technologies on your device and process such data to personalise content and ads, as well as provide social media features and to analyse the traffic.

  • Store and/or access information on your device

    Cookies, device identifiers or other information can be stored or accessed on your device for the purposes indicated above.

  • Personalised ads and content, ad and content measurement, audience insights, and products development

    Ads and content can be personalised based on a profile. More data can be added to better personalise ads and content. Ad and content performance can be measured. Insights about the audience who saw the ads and content can be derived. Such data can be used to develop or improve user’s experience, systems and software.

By clicking ‘I Agree’ you will allow the use of indicated cookies, device identifiers, web beacons or other similar technologies. Your settings can be changed in the browser on your device.

For certain purposes, legitimate interests may be relied on, rather than consent. You can read more about this in our Privacy and Cookie Policy.